Location: Voyageurs National Park
(48.5020°N, 92.9292°W)
Time: 06:19:35
(UTC-06:00)

PCSat - Visible Passes

Search period start: 29 January 2015 00:00
Search period end: 08 February 2015 00:00
Orbit: 786 x 796 km, 67.1° (Epoch: 27 January)

Date Brightness Start Highest point End Pass type
(mag) Time Alt. Az. Time Alt. Az. Time Alt. Az.
29 Jan 11.0 04:14:03 34° ESE 04:14:03 34° ESE 04:18:32 10° NE visible
29 Jan 9.8 05:54:49 31° W 05:56:56 47° NW 06:02:12 10° NNE visible
30 Jan 11.7 03:44:49 22° E 03:44:49 22° E 03:47:35 10° NE visible
30 Jan 9.6 05:25:35 55° W 05:26:12 59° NW 05:31:35 10° NNE visible
30 Jan 11.1 07:07:05 10° WNW 07:10:48 18° NNW 07:14:26 10° NNE visible
31 Jan 12.3 03:15:27 14° ENE 03:15:27 14° ENE 03:16:30 10° ENE visible
31 Jan 9.7 04:56:12 65° N 04:56:12 65° N 05:00:57 10° NNE visible
31 Jan 11.0 06:36:57 14° WNW 06:39:50 21° NNW 06:43:53 10° NNE visible
01 Feb 10.5 04:26:42 42° NE 04:26:42 42° NE 04:30:17 10° NE visible
01 Feb 10.7 06:07:27 22° WNW 06:08:55 24° NW 06:13:19 10° NNE visible
02 Feb 11.4 03:57:08 27° NE 03:57:08 27° NE 03:59:34 10° NE visible
02 Feb 10.5 05:37:52 29° NW 05:38:02 29° NW 05:42:46 10° NNE visible
03 Feb 12.0 03:27:29 17° NE 03:27:29 17° NE 03:28:48 10° NE visible
03 Feb 10.5 05:08:13 33° NNW 05:08:13 33° NNW 05:12:11 10° NNE visible
03 Feb 11.5 06:49:35 10° NW 06:52:17 14° NNW 06:54:54 10° N visible
04 Feb 12.5 02:57:46 11° NE 02:57:46 11° NE 02:57:59 10° NE visible
04 Feb 10.9 04:38:30 30° N 04:38:30 30° N 04:41:35 10° NNE visible
04 Feb 11.4 06:19:14 13° NW 06:21:16 15° NNW 06:24:21 10° NNE visible
05 Feb 11.4 04:08:45 24° NNE 04:08:45 24° NNE 04:10:58 10° NNE visible
05 Feb 11.2 05:49:29 17° NW 05:50:16 17° NNW 05:53:48 10° NNE visible
06 Feb 11.9 03:38:58 18° NNE 03:38:58 18° NNE 03:40:20 10° NNE visible
06 Feb 11.2 05:19:41 20° NNW 05:19:41 20° NNW 05:23:15 10° NNE visible
06 Feb 11.7 07:03:40 10° NNW 07:04:57 11° N 07:06:14 10° N visible
07 Feb 12.3 03:09:08 13° NE 03:09:08 13° NE 03:09:40 10° NE visible
07 Feb 11.3 04:49:51 21° N 04:49:51 21° N 04:52:41 10° NNE visible
07 Feb 11.7 06:32:13 10° NNW 06:33:53 11° N 06:35:29 10° N visible
